TimeCDT,TemperatureF,Dew PointF,Humidity,Sea Level PressureIn,VisibilityMPH,Wind Direction,Wind SpeedMPH,Gust SpeedMPH,PrecipitationIn,Events,Conditions,WindDirDegrees,DateUTC
12:52 AM,42.1,39.9,92,29.89,10.0,WSW,4.6,-,N/A,,Clear,240,2012-10-10 05:52:00
1:52 AM,41.0,39.0,93,29.91,10.0,WSW,4.6,-,N/A,,Partly Cloudy,240,2012-10-10 06:52:00
2:52 AM,39.9,37.9,93,29.91,10.0,Variable,3.5,-,N/A,,Clear,0,2012-10-10 07:52:00
3:52 AM,39.0,36.0,89,29.92,10.0,Variable,3.5,-,N/A,,Clear,0,2012-10-10 08:52:00
4:52 AM,37.0,35.1,93,29.94,10.0,Variable,3.5,-,N/A,,Clear,0,2012-10-10 09:52:00
5:52 AM,36.0,34.0,93,29.96,10.0,Calm,Calm,-,N/A,,Clear,0,2012-10-10 10:52:00
6:52 AM,36.0,33.1,89,29.99,10.0,West,5.8,-,N/A,,Scattered Clouds,270,2012-10-10 11:52:00
7:52 AM,37.0,32.0,82,30.02,10.0,West,6.9,-,N/A,,Clear,270,2012-10-10 12:52:00
8:52 AM,39.0,33.1,79,30.06,10.0,West,10.4,17.3,N/A,,Clear,280,2012-10-10 13:52:00
9:52 AM,42.8,33.1,69,30.06,10.0,West,12.7,21.9,N/A,,Partly Cloudy,280,2012-10-10 14:52:00
10:52 AM,43.0,30.0,60,30.08,10.0,WNW,10.4,21.9,N/A,,Mostly Cloudy,290,2012-10-10 15:52:00
11:52 AM,46.9,27.0,46,30.10,10.0,West,8.1,23.0,N/A,,Scattered Clouds,270,2012-10-10 16:52:00
12:52 PM,48.9,24.1,38,30.09,10.0,West,9.2,21.9,N/A,,Mostly Cloudy,280,2012-10-10 17:52:00
1:52 PM,48.9,23.0,36,30.09,10.0,West,12.7,23.0,N/A,,Clear,270,2012-10-10 18:52:00
2:52 PM,48.9,24.1,38,30.10,10.0,West,9.2,21.9,N/A,,Partly Cloudy,280,2012-10-10 19:52:00
3:52 PM,48.9,21.9,35,30.11,10.0,WNW,13.8,20.7,N/A,,Scattered Clouds,290,2012-10-10 20:52:00
4:52 PM,48.9,23.0,36,30.11,10.0,West,11.5,18.4,N/A,,Partly Cloudy,280,2012-10-10 21:52:00
5:52 PM,46.9,24.1,41,30.13,10.0,West,5.8,-,N/A,,Clear,270,2012-10-10 22:52:00
6:52 PM,44.1,25.0,47,30.15,10.0,Calm,Calm,-,N/A,,Clear,0,2012-10-10 23:52:00
7:52 PM,37.0,27.0,67,30.17,10.0,Calm,Calm,-,N/A,,Clear,0,2012-10-11 00:52:00
8:52 PM,37.9,28.0,68,30.18,10.0,SW,3.5,-,N/A,,Clear,230,2012-10-11 01:52:00
9:52 PM,37.9,28.0,68,30.18,10.0,SW,3.5,-,N/A,,Clear,220,2012-10-11 02:52:00
10:52 PM,37.0,28.0,70,30.17,10.0,SW,3.5,-,N/A,,Clear,220,2012-10-11 03:52:00
11:52 PM,37.0,28.0,70,30.17,10.0,SW,3.5,-,N/A,,Clear,230,2012-10-11 04:52:00